GW3525 Weather Reports


Display with metric or nautical units.
time (UTC)temp
F
wind
direction
speed
MPH
gust
MPH
rain 1hr
in
rain 24hr
in
rain mn
in
humidity
%
barometer
mb
20260901075108 76 212 0.0 4.0 0.00 0.00 0.00 93 1012.8
20260901074608 76 208 4.0 4.0 0.00 0.00 0.00 93 1013.0
20260901074103 76 214 5.0 8.0 0.00 0.00 0.00 92 1013.0
20260901073600 76 200 4.0 6.0 0.00 0.00 0.00 92 1013.0
20260901073059 76 215 3.0 4.0 0.00 0.00 0.00 92 1013.0
20260901072555 76 203 5.0 5.0 0.00 0.00 0.00 92 1013.0
20260901072049 76 197 2.0 6.0 0.00 0.00 0.00 92 1012.8
20260901071544 76 177 2.0 4.0 0.00 0.00 0.00 92 1012.9
20260901071042 76 204 3.0 5.0 0.00 0.00 0.00 92 1012.7
20260901070537 76 196 4.0 7.0 0.00 0.00 0.00 92 1012.7
20260901070033 76 245 0.0 5.0 0.00 0.00 0.00 92 1012.7
20260901065527 76 207 4.0 5.0 0.00 0.00 0.00 93 1012.7
20260901065021 76 180 2.0 4.0 0.00 0.00 0.00 93 1012.8
20260901064519 76 213 3.0 4.0 0.00 0.00 0.00 93 1012.9
20260901064015 76 200 2.0 3.0 0.00 0.00 0.00 92 1012.9
20260901063512 76 202 2.0 3.0 0.00 0.00 0.00 93 1012.8
20260901063008 76 224 0.0 2.0 0.00 0.00 0.00 92 1012.7
20260901062503 77 224 1.0 3.0 0.00 0.00 0.00 92 1012.7
20260901061959 77 221 2.0 4.0 0.00 0.00 0.00 92 1012.8
20260901061454 76 219 2.0 2.0 0.00 0.00 0.00 92 1012.7
20260901060949 76 220 0.0 2.0 0.00 0.00 0.00 93 1012.6
20260901060444 76 206 1.0 2.0 0.00 0.00 0.00 93 1012.6
20260901055943 76 212 0.0 2.0 0.00 0.00 0.00 93 1012.7
20260901055440 77 193 1.0 3.0 0.00 0.00 0.00 93 1012.6
20260901054936 77 129 0.0 2.0 0.00 0.00 0.00 93 1012.7
20260901054434 77 211 0.0 2.0 0.00 0.00 0.00 93 1012.7
20260901053929 77 205 0.0 4.0 0.00 0.00 0.00 93 1012.7
20260901053425 77 198 2.0 3.0 0.00 0.00 0.00 93 1012.8
20260901052920 76 194 1.0 2.0 0.00 0.00 0.00 94 1012.6
20260901052415 77 171 0.0 2.0 0.00 0.00 0.00 94 1012.6
20260901051914 77 205 0.0 1.0 0.00 0.00 0.00 94 1012.7
20260901051410 77 212 0.0 2.0 0.00 0.00 0.00 94 1012.8
20260901050904 77 232 2.0 2.0 0.00 0.00 0.00 94 1012.8
20260901050400 77 204 1.0 2.0 0.00 0.00 0.00 93 1012.7
20260901045859 77 217 2.0 3.0 0.00 0.16 0.16 93 1012.8
20260901045354 77 206 2.0 3.0 0.00 0.16 0.16 94 1012.8
20260901044849 77 197 2.0 3.0 0.00 0.16 0.16 94 1013.0
20260901044345 77 220 2.0 2.0 0.00 0.16 0.16 94 1012.8
20260901043841 77 219 1.0 2.0 0.00 0.16 0.16 94 1012.7
20260901043337 78 214 1.0 2.0 0.00 0.16 0.16 94 1012.9
20260901042836 78 220 1.0 2.0 0.00 0.16 0.16 93 1013.1
20260901042331 78 198 2.0 2.0 0.00 0.16 0.16 93 1013.0
20260901041827 78 213 1.0 2.0 0.00 0.16 0.16 92 1013.0
20260901041322 78 219 0.0 2.0 0.00 0.16 0.16 92 1012.9
20260901040821 78 224 2.0 3.0 0.00 0.16 0.16 92 1012.8
20260901040320 78 219 2.0 4.0 0.00 0.16 0.16 92 1013.0
20260901035815 78 243 2.0 2.0 0.00 0.16 0.16 92 1013.0
20260901035313 78 255 0.0 2.0 0.00 0.16 0.16 92 1012.8
20260901034812 79 236 0.0 3.0 0.00 0.16 0.16 92 1012.9
20260901034308 79 221 0.0 2.0 0.00 0.16 0.16 91 1012.8
20260901033802 79 196 2.0 3.0 0.00 0.16 0.16 91 1013.0
20260901033301 79 205 2.0 4.0 0.00 0.16 0.16 90 1013.0
20260901032759 80 224 2.0 5.0 0.00 0.16 0.16 90 1012.9
20260901032254 80 225 2.0 3.0 0.00 0.16 0.16 90 1012.9
20260901031749 80 218 2.0 3.0 0.00 0.16 0.16 90 1013.2
20260901031244 80 192 1.0 2.0 0.00 0.16 0.16 90 1013.1
20260901030739 80 212 0.0 2.0 0.00 0.16 0.16 89 1013.3
20260901030234 80 220 1.0 4.0 0.00 0.16 0.16 89 1013.2
20260901025728 80 242 3.0 6.0 0.00 0.16 0.16 89 1012.8
20260901025223 80 187 3.0 3.0 0.00 0.16 0.16 90 1012.9
20260901024723 80 207 2.0 3.0 0.00 0.16 0.16 90 1013.0
20260901024223 80 197 2.0 2.0 0.00 0.16 0.16 91 1012.9
20260901023721 80 196 2.0 3.0 0.00 0.16 0.16 91 1012.9
20260901023216 79 218 2.0 2.0 0.00 0.16 0.16 91 1013.1
20260901022711 79 198 0.0 2.0 0.00 0.16 0.16 91 1013.2
20260901022206 79 205 2.0 3.0 0.00 0.16 0.16 91 1013.2
20260901021702 79 227 0.0 2.0 0.00 0.16 0.16 91 1013.3
20260901021156 80 297 0.0 2.0 0.00 0.16 0.16 91 1013.3
20260901020652 80 212 3.0 4.0 0.00 0.16 0.16 90 1012.8
20260901020148 80 199 2.0 7.0 0.00 0.16 0.16 90 1013.0
20260901015643 80 180 0.0 3.0 0.00 0.16 0.16 90 1012.9
20260901015142 80 218 1.0 3.0 0.00 0.16 0.16 90 1012.8
20260901014637 79 206 2.0 4.0 0.00 0.16 0.16 91 1013.0
20260901014133 79 227 0.0 3.0 0.00 0.16 0.16 92 1012.8
20260901013629 78 230 3.0 4.0 0.00 0.16 0.16 93 1012.6
20260901013125 78 202 2.0 2.0 0.00 0.16 0.16 93 1013.0
20260901012624 78 189 0.0 3.0 0.00 0.16 0.16 93 1012.6
20260901012119 78 209 0.0 0.0 0.00 0.16 0.16 94 1012.8
20260901011611 78 217 0.0 0.0 0.00 0.16 0.16 94 1012.8
20260901011109 78 269 0.0 0.0 0.00 0.16 0.16 94 1012.8
20260901010604 78 269 0.0 0.0 0.00 0.16 0.16 94 1012.8
20260901005557 78 217 0.0 2.0 0.00 0.16 0.16 93 1012.6
20260901005052 79 205 0.0 1.0 0.00 0.16 0.16 93 1012.6
20260901004552 79 241 2.0 2.0 0.00 0.16 0.16 92 1012.5
20260901004047 79 240 0.0 2.0 0.00 0.16 0.16 91 1012.6
20260901003543 79 229 0.0 2.0 0.00 0.16 0.16 92 1012.7
20260901003041 80 230 0.0 1.0 0.00 0.16 0.16 91 1012.8
20260901002540 80 220 0.0 1.0 0.00 0.16 0.16 91 1012.6
20260901002036 80 164 0.0 2.0 0.00 0.16 0.16 91 1012.7
20260901001530 80 211 0.0 0.0 0.00 0.16 0.16 91 1012.7
20260901001026 81 193 0.0 2.0 0.00 0.16 0.16 89 1012.8
20260901000525 81 203 3.0 3.0 0.00 0.16 0.16 89 1012.5
20260901000021 81 226 2.0 5.0 0.00 0.16 0.16 89 1012.4
20260831235515 82 238 1.0 3.0 0.00 0.16 0.16 89 1012.1
20260831235010 82 211 3.0 4.0 0.00 0.16 0.16 88 1012.2
20260831234505 82 238 3.0 4.0 0.00 0.16 0.16 90 1012.1
20260831234001 82 213 3.0 4.0 0.00 0.16 0.16 91 1012.2
20260831233455 82 241 2.0 3.0 0.05 0.16 0.16 92 1011.8
20260831232951 81 119 0.0 2.0 0.07 0.16 0.16 93 1011.6
20260831232447 81 138 2.0 3.0 0.02 0.15 0.15 93 1012.0
20260831231942 81 129 0.0 0.0 0.00 0.15 0.15 93 1012.7
20260831231439 82 186 0.0 1.0 0.00 0.15 0.15 91 1012.9
20260831230934 82 310 0.0 0.0 0.00 0.15 0.15 92 1013.2
20260831230434 82 296 0.0 2.0 0.00 0.15 0.15 92 1012.9
20260831225928 82 273 0.0 1.0 0.00 0.15 0.15 91 1012.8
20260831225425 82 230 0.0 0.0 0.00 0.15 0.15 92 1012.5
20260831224920 82 309 0.0 0.0 0.00 0.15 0.15 92 1012.3
20260831224419 82 224 0.0 2.0 0.00 0.15 0.15 93 1012.2
20260831223914 82 217 0.0 1.0 0.00 0.15 0.15 91 1012.2
20260831223410 82 212 0.0 2.0 0.00 0.15 0.15 92 1012.1
20260831222906 82 255 0.0 0.0 0.00 0.15 0.15 88 1012.3
20260831222402 82 234 0.0 2.0 0.31 0.15 0.15 87 1012.2
20260831221856 84 239 2.0 2.0 0.26 0.14 0.14 85 1012.3
20260831221352 86 284 0.0 3.0 0.00 0.09 0.09 76 1012.2
20260831220848 87 214 1.0 6.0 0.00 0.09 0.09 72 1012.1
20260831220343 87 220 5.0 5.0 0.00 0.09 0.09 71 1012.3
20260831215838 87 190 2.0 7.0 0.00 0.09 0.09 71 1012.2
20260831215334 88 223 4.0 4.0 0.00 0.09 0.09 70 1011.9
20260831214830 87 214 3.0 7.0 0.00 0.09 0.09 70 1011.9
20260831214327 88 178 4.0 7.0 0.00 0.09 0.09 69 1012.2
20260831213822 88 199 2.0 7.0 0.00 0.09 0.09 69 1011.8
20260831213319 89 232 4.0 8.0 0.00 0.09 0.09 68 1011.8
20260831212814 89 212 4.0 8.0 0.00 0.09 0.09 67 1011.9
20260831212311 88 235 0.0 11.0 0.00 0.09 0.09 68 1012.0
20260831211809 88 219 4.0 7.0 0.00 0.09 0.09 68 1012.0
20260831211304 88 189 6.0 6.0 0.00 0.09 0.09 67 1012.0
20260831210758 88 232 3.0 11.0 0.00 0.09 0.09 67 1012.0
20260831210255 89 197 5.0 7.0 0.00 0.09 0.09 66 1012.1
20260831205754 89 212 3.0 6.0 0.00 0.09 0.09 67 1012.0
20260831205250 90 153 4.0 7.0 0.00 0.09 0.09 65 1012.1
20260831204749 88 225 6.0 11.0 0.00 0.09 0.09 66 1012.1
20260831204249 89 196 5.0 6.0 0.00 0.09 0.09 67 1012.0
20260831203748 89 212 6.0 16.0 0.00 0.09 0.09 66 1012.2
20260831203243 89 184 5.0 9.0 0.00 0.09 0.09 67 1012.0
20260831202741 90 206 6.0 7.0 0.00 0.09 0.09 66 1012.6
20260831202236 89 138 4.0 9.0 0.00 0.09 0.09 66 1012.4
20260831201731 89 207 5.0 7.0 0.00 0.09 0.09 67 1012.5
20260831201224 89 225 3.0 5.0 0.00 0.09 0.09 69 1012.7
20260831200721 89 219 3.0 6.0 0.00 0.09 0.09 69 1012.8
20260831200220 88 216 6.0 10.0 0.00 0.09 0.09 68 1012.6
20260831195716 88 180 4.0 7.0 0.00 0.09 0.09 69 1012.3
20260831195211 88 209 3.0 6.0 0.00 0.09 0.09 69 1012.5
20260831194700 87 203 3.0 5.0 0.00 0.09 0.09 70 1012.4
20260831194155 87 210 4.0 12.0 0.00 0.09 0.09 69 1012.2
20260831193650 88 223 2.0 6.0 0.00 0.09 0.09 70 1012.4
20260831193145 88 222 6.0 6.0 0.00 0.09 0.09 68 1012.4
20260831192640 88 228 4.0 8.0 0.00 0.09 0.09 67 1012.3
20260831192136 87 213 6.0 14.0 0.00 0.09 0.09 67 1012.5
20260831191631 88 218 6.0 9.0 0.00 0.09 0.09 66 1012.7
20260831191127 88 194 12.0 12.0 0.00 0.09 0.09 67 1012.6
20260831190622 88 206 6.0 10.0 0.00 0.09 0.09 66 1012.5
20260831190120 87 214 4.0 12.0 0.00 0.09 0.09 66 1012.5
20260831185611 88 197 8.0 10.0 0.00 0.09 0.09 64 1012.9
20260831185107 89 202 7.0 8.0 0.00 0.09 0.09 64 1012.4
20260831184606 89 236 4.0 14.0 0.00 0.09 0.09 65 1012.7
20260831184101 90 221 4.0 13.0 0.00 0.09 0.09 66 1012.4
20260831183600 89 208 2.0 5.0 0.00 0.09 0.09 69 1012.5
20260831183054 88 182 3.0 8.0 0.00 0.09 0.09 69 1012.6
20260831182548 87 205 1.0 12.0 0.00 0.09 0.09 69 1012.6
20260831182044 88 237 3.0 8.0 0.00 0.09 0.09 67 1012.6
20260831181538 87 225 5.0 7.0 0.00 0.09 0.09 68 1012.8
20260831181038 86 199 6.0 11.0 0.00 0.09 0.09 70 1012.8
20260831180534 86 194 6.0 14.0 0.00 0.09 0.09 69 1012.7
20260831180028 86 209 3.0 10.0 0.00 0.09 0.09 69 1012.5
20260831175524 86 209 6.0 9.0 0.00 0.09 0.09 69 1012.8
20260831175021 85 222 3.0 11.0 0.00 0.09 0.09 71 1012.8
20260831174520 85 224 7.0 10.0 0.00 0.09 0.09 71 1013.0
20260831174015 85 123 5.0 6.0 0.00 0.09 0.09 71 1013.0
20260831173513 84 240 7.0 7.0 0.00 0.09 0.09 72 1013.1
20260831173010 83 180 6.0 7.0 0.00 0.09 0.09 72 1012.9
20260831172505 84 225 6.0 8.0 0.00 0.09 0.09 73 1013.2
20260831171959 83 208 11.0 12.0 0.00 0.09 0.09 72 1013.2
20260831171455 83 207 6.0 7.0 0.00 0.09 0.09 72 1013.3
20260831170952 83 168 5.0 10.0 0.00 0.09 0.09 75 1013.3
20260831170448 82 182 2.0 7.0 0.00 0.09 0.09 78 1013.4
20260831165945 81 173 2.0 8.0 0.00 0.09 0.09 78 1013.3
20260831165440 80 193 0.0 9.0 0.00 0.09 0.09 80 1013.6
20260831164937 80 203 9.0 9.0 0.00 0.09 0.09 78 1013.9
20260831164432 80 204 6.0 7.0 0.00 0.09 0.09 78 1013.7
20260831163927 79 211 0.0 7.0 0.00 0.09 0.09 80 1013.4
20260831163423 79 126 5.0 6.0 0.00 0.09 0.09 80 1013.9
20260831162921 78 203 4.0 7.0 0.00 0.09 0.09 81 1013.8
20260831162417 78 112 2.0 5.0 0.00 0.09 0.09 81 1013.8
20260831161914 78 207 2.0 5.0 0.00 0.09 0.09 83 1013.9
20260831161412 77 219 5.0 9.0 0.00 0.09 0.09 82 1013.8
20260831160907 77 152 3.0 5.0 0.00 0.09 0.09 84 1013.9
20260831160401 76 186 2.0 6.0 0.00 0.09 0.09 86 1013.8
20260831155851 76 149 4.0 5.0 0.00 0.09 0.09 85 1013.7
20260831155350 76 151 3.0 4.0 0.00 0.09 0.09 87 1013.8
20260831154846 75 138 2.0 4.0 0.00 0.09 0.09 88 1014.1
20260831154343 74 160 3.0 4.0 0.00 0.09 0.09 90 1014.0
20260831153841 74 196 1.0 4.0 0.00 0.09 0.09 90 1014.0
20260831153337 73 124 2.0 5.0 0.00 0.09 0.09 90 1014.1
20260831152833 73 75 0.0 3.0 0.00 0.09 0.09 92 1013.8
20260831152329 72 116 2.0 7.0 0.00 0.09 0.09 91 1014.0
20260831151824 72 141 1.0 4.0 0.14 0.09 0.09 92 1014.3
20260831151322 73 230 2.0 5.0 0.19 0.09 0.09 92 1014.1
20260831150818 74 98 2.0 4.0 0.02 0.07 0.07 86 1014.1
20260831150313 74 158 2.0 4.0 0.00 0.06 0.06 85 1014.3
20260831145812 74 147 2.0 4.0 0.00 0.06 0.06 86 1014.0
20260831145309 74 113 3.0 3.0 0.00 0.06 0.06 87 1014.2
20260831144805 74 238 0.0 3.0 0.00 0.06 0.06 87 1014.1
20260831144301 74 116 4.0 4.0 0.00 0.06 0.06 87 1013.9
20260831143800 73 131 3.0 6.0 0.00 0.06 0.06 88 1014.0
20260831143255 73 122 3.0 4.0 0.00 0.06 0.06 88 1014.0
20260831142750 73 124 3.0 6.0 0.00 0.06 0.06 89 1013.8
20260831142246 73 112 1.0 4.0 0.00 0.06 0.06 90 1014.0
20260831141745 72 112 2.0 3.0 0.00 0.06 0.06 90 1013.9
20260831141245 71 126 2.0 4.0 0.00 0.06 0.06 92 1014.0
20260831140740 71 125 4.0 5.0 0.00 0.06 0.06 92 1013.9
20260831140234 71 138 3.0 4.0 0.00 0.06 0.06 93 1014.0
20260831135732 71 125 3.0 5.0 0.00 0.06 0.06 93 1013.8
20260831135228 71 112 2.0 3.0 0.00 0.06 0.06 93 1013.8
20260831134723 71 132 2.0 4.0 0.00 0.06 0.06 94 1013.9
20260831134220 70 135 4.0 4.0 0.00 0.06 0.06 94 1014.2
20260831133718 70 124 3.0 3.0 0.00 0.06 0.06 95 1014.1
20260831133213 70 111 0.0 2.0 0.00 0.06 0.06 96 1014.0
20260831132709 69 15 0.0 2.0 0.00 0.06 0.06 96 1014.1
20260831132208 69 152 0.0 2.0 0.00 0.06 0.06 95 1013.9
20260831131703 69 119 3.0 5.0 0.00 0.06 0.06 95 1013.8
20260831131200 69 124 4.0 6.0 0.00 0.06 0.06 95 1013.8
20260831130654 69 108 0.0 3.0 0.00 0.06 0.06 95 1013.8
20260831130150 69 121 1.0 3.0 0.02 0.06 0.06 96 1013.9
20260831125648 69 129 4.0 4.0 0.14 0.06 0.06 95 1014.0
20260831125144 70 126 2.0 3.0 0.26 0.06 0.06 94 1014.3
20260831124640 70 163 2.0 2.0 0.14 0.04 0.04 92 1014.4
20260831124136 71 209 0.0 2.0 0.00 0.02 0.02 90 1014.2
20260831123635 71 55 0.0 1.0 0.00 0.02 0.02 90 1013.6
20260831123134 71 310 0.0 1.0 0.00 0.02 0.02 88 1013.6
20260831122634 72 147 0.0 2.0 0.00 0.02 0.02 86 1013.7
20260831122130 72 28 1.0 2.0 0.00 0.02 0.02 85 1013.6
20260831121629 72 107 0.0 4.0 0.00 0.02 0.02 84 1013.5
20260831121126 72 151 0.0 2.0 0.00 0.02 0.02 84 1013.3
20260831120626 72 173 2.0 2.0 0.00 0.02 0.02 85 1013.0
20260831120116 72 155 2.0 5.0 0.00 0.02 0.02 85 1013.3
20260831115612 72 197 6.0 6.0 0.00 0.02 0.02 85 1013.3
20260831115107 72 150 0.0 5.0 0.00 0.02 0.02 85 1013.1
20260831114606 72 195 2.0 3.0 0.00 0.02 0.02 85 1013.2
20260831114102 71 173 2.0 5.0 0.00 0.02 0.02 86 1012.9
20260831113600 71 157 0.0 3.0 0.00 0.02 0.02 87 1012.9
20260831113056 71 237 1.0 4.0 0.00 0.02 0.02 87 1012.9
20260831112555 71 148 0.0 2.0 0.00 0.02 0.02 90 1013.0
20260831112050 71 232 0.0 2.0 0.00 0.02 0.02 90 1012.9
20260831111546 71 141 0.0 3.0 0.00 0.02 0.02 89 1012.9
20260831111042 71 231 2.0 2.0 0.00 0.02 0.02 88 1012.9
20260831110536 71 221 2.0 4.0 0.00 0.02 0.02 89 1012.9
20260831110031 71 139 2.0 4.0 0.05 0.02 0.02 89 1012.9
20260831105531 71 148 0.0 2.0 0.05 0.02 0.02 90 1013.2
20260831105026 71 155 0.0 3.0 0.05 0.01 0.01 89 1012.9
20260831104522 71 182 0.0 3.0 0.05 0.01 0.01 88 1013.2
20260831104018 72 234 1.0 4.0 0.00 0.00 0.00 85 1013.2
20260831103518 72 223 0.0 2.0 0.00 0.00 0.00 86 1013.2
20260831103015 72 162 2.0 2.0 0.00 0.00 0.00 86 1013.2
20260831102508 72 175 0.0 3.0 0.00 0.00 0.00 85 1013.2
20260831102003 72 159 0.0 4.0 0.00 0.00 0.00 86 1013.0
20260831101458 72 219 0.0 3.0 0.00 0.00 0.00 86 1013.0
20260831100954 72 184 2.0 4.0 0.00 0.00 0.00 86 1013.0
20260831100450 72 179 2.0 2.0 0.00 0.00 0.00 86 1012.9
20260831095945 72 224 0.0 3.0 0.00 0.00 0.00 86 1012.8
20260831095445 72 133 2.0 2.0 0.00 0.00 0.00 87 1012.7
20260831094939 72 224 0.0 3.0 0.00 0.00 0.00 87 1012.9
20260831094436 72 168 1.0 3.0 0.00 0.00 0.00 87 1012.9
20260831093931 72 159 2.0 2.0 0.00 0.00 0.00 87 1013.0
20260831093426 72 168 0.0 2.0 0.00 0.00 0.00 87 1013.0
20260831092923 72 143 0.0 5.0 0.00 0.00 0.00 87 1012.9
20260831092418 72 148 2.0 2.0 0.00 0.00 0.00 87 1013.2
20260831091913 72 250 2.0 3.0 0.00 0.00 0.00 87 1013.3
20260831091408 72 205 2.0 3.0 0.00 0.00 0.00 87 1013.3
20260831090858 72 205 1.0 2.0 0.00 0.00 0.00 87 1013.0
20260831090354 73 164 0.0 0.0 0.00 0.00 0.00 86 1013.1
20260831085850 73 202 1.0 2.0 0.00 0.00 0.00 86 1013.1
20260831085344 73 127 1.0 2.0 0.00 0.00 0.00 86 1013.1
20260831084844 73 247 1.0 3.0 0.00 0.00 0.00 86 1013.1
20260831084340 73 199 0.0 3.0 0.00 0.00 0.00 86 1012.9
20260831083837 73 146 0.0 2.0 0.00 0.00 0.00 86 1012.9
20260831083332 73 191 0.0 2.0 0.00 0.00 0.00 86 1013.2
20260831082830 73 248 2.0 2.0 0.00 0.00 0.00 86 1013.1
20260831082325 73 240 0.0 4.0 0.00 0.00 0.00 86 1013.2
20260831081821 73 105 1.0 2.0 0.00 0.00 0.00 86 1013.2
20260831081317 73 154 0.0 2.0 0.00 0.00 0.00 86 1013.1
20260831080812 73 104 2.0 2.0 0.00 0.00 0.00 85 1012.9
20260831080307 73 209 1.0 2.0 0.00 0.00 0.00 85 1013.2
20260831075803 73 116 0.0 2.0 0.00 0.00 0.00 85 1013.2
20260831075258 73 201 2.0 3.0 0.00 0.00 0.00 85 1013.0